VIP199 VTBD-VTCC

Flight info

Callsign VIP199
Flight time 1h 3m
Altitude 32000
Route OLVUK3C OLVUK Y26 MARNI MARNI2B
Aircraft B738/M-SDE2E3FGHIRWXY/LB1

Departure

Time 2026-04-17 12:46
Airport Don Mueang International Airport (VTBD)

Arrival

Time 2026-04-17 13:50
Airport Chiang Mai International Airport (VTCC)
Time Latitude Longitude Altitude Speed Heading
2026-04-17 12:21 13.91756 100.60385 30 ft 0 kts 28°
2026-04-17 12:37 13.91750 100.60381 30 ft 2 kts 28°
2026-04-17 12:38 13.91736 100.60377 31 ft 2 kts 360°
2026-04-17 12:38 13.91721 100.60380 31 ft 2 kts 339°
2026-04-17 12:38 13.91708 100.60387 30 ft 2 kts 316°
2026-04-17 12:38 13.91699 100.60400 30 ft 2 kts 294°
2026-04-17 12:39 13.91695 100.60415 30 ft 2 kts 271°
2026-04-17 12:39 13.91695 100.60416 30 ft 2 kts 270°
2026-04-17 12:39 13.91697 100.60427 30 ft 2 kts 253°
2026-04-17 12:39 13.91703 100.60440 29 ft 2 kts 231°
2026-04-17 12:40 13.91712 100.60449 29 ft 0 kts 212°
2026-04-17 12:40 13.91718 100.60452 29 ft 1 kts 208°
2026-04-17 12:40 13.91719 100.60453 29 ft 0 kts 208°
2026-04-17 12:42 13.91714 100.60450 29 ft 2 kts 208°
2026-04-17 12:42 13.91686 100.60436 29 ft 3 kts 193°
2026-04-17 12:42 13.91663 100.60441 29 ft 1 kts 149°
2026-04-17 12:42 13.91652 100.60474 28 ft 8 kts 71°
2026-04-17 12:43 13.91706 100.60529 28 ft 13 kts 27°
2026-04-17 12:43 13.91806 100.60580 27 ft 18 kts 27°
2026-04-17 12:43 13.91927 100.60651 25 ft 21 kts 30°
2026-04-17 12:43 13.92075 100.60731 25 ft 24 kts 31°
2026-04-17 12:44 13.92201 100.60806 26 ft 20 kts 29°
2026-04-17 12:44 13.92339 100.60883 26 ft 25 kts 30°
2026-04-17 12:44 13.92504 100.60978 26 ft 29 kts 27°
2026-04-17 12:44 13.92613 100.61037 26 ft 11 kts 34°
2026-04-17 12:45 13.92641 100.61098 26 ft 11 kts 103°
2026-04-17 12:45 13.92604 100.61180 23 ft 14 kts 118°
2026-04-17 12:45 13.92541 100.61183 22 ft 10 kts 197°
2026-04-17 12:45 13.92441 100.61136 21 ft 46 kts 208°
2026-04-17 12:46 13.91802 100.60786 23 ft 155 kts 208°
2026-04-17 12:46 13.90723 100.60229 568 ft 191 kts 200°
2026-04-17 12:46 13.89380 100.59748 537 ft 203 kts 208°
2026-04-17 12:46 13.88459 100.58994 1050 ft 149 kts 231°
2026-04-17 12:47 13.87673 100.58202 745 ft 173 kts 226°
2026-04-17 12:47 13.86969 100.57049 1421 ft 201 kts 247°
2026-04-17 12:47 13.86590 100.55720 2747 ft 204 kts 258°
2026-04-17 12:47 13.86343 100.54188 3678 ft 241 kts 261°
2026-04-17 12:48 13.85965 100.52389 4219 ft 268 kts 253°
2026-04-17 12:48 13.85165 100.50643 4233 ft 274 kts 236°
2026-04-17 12:48 13.83880 100.49165 3429 ft 289 kts 221°
2026-04-17 12:48 13.82472 100.47516 1856 ft 357 kts 244°
2026-04-17 12:49 13.81889 100.44920 2386 ft 379 kts 265°
2026-04-17 12:49 13.82096 100.42320 2361 ft 359 kts 284°
2026-04-17 12:49 13.83101 100.40086 2269 ft 332 kts 305°
2026-04-17 12:49 13.84722 100.38519 2215 ft 309 kts 326°
2026-04-17 12:50 13.86531 100.37296 3269 ft 323 kts 327°
2026-04-17 12:50 13.88031 100.36295 6701 ft 262 kts 327°
2026-04-17 12:50 13.89576 100.35263 7796 ft 284 kts 327°
2026-04-17 12:50 13.91200 100.34179 9408 ft 284 kts 327°
2026-04-17 12:51 13.92837 100.33086 10749 ft 291 kts 327°
2026-04-17 12:51 13.94520 100.31966 12084 ft 296 kts 329°
2026-04-17 12:51 13.96431 100.31261 13026 ft 291 kts 351°
2026-04-17 12:51 13.98476 100.31351 13006 ft 317 kts 14°
2026-04-17 12:52 14.00548 100.32171 13058 ft 325 kts 18°
2026-04-17 12:52 14.02777 100.32293 14574 ft 317 kts 354°
2026-04-17 12:52 14.04836 100.32082 16087 ft 311 kts 353°
2026-04-17 12:52 14.07024 100.31827 17057 ft 321 kts 353°
2026-04-17 12:53 14.09218 100.31571 18137 ft 326 kts 353°
2026-04-17 12:53 14.11446 100.31311 19177 ft 330 kts 353°
2026-04-17 12:53 14.13730 100.31044 20161 ft 336 kts 353°
2026-04-17 12:53 14.16057 100.30772 21121 ft 341 kts 353°
2026-04-17 12:54 14.18393 100.30500 22036 ft 346 kts 353°
2026-04-17 12:54 14.20777 100.30220 22926 ft 350 kts 353°
2026-04-17 12:54 14.23205 100.29938 23775 ft 355 kts 353°
2026-04-17 12:54 14.25677 100.29649 24610 ft 360 kts 353°
2026-04-17 12:55 14.28152 100.29360 25403 ft 365 kts 353°
2026-04-17 12:55 14.30688 100.29064 26179 ft 369 kts 353°
2026-04-17 12:55 14.33209 100.28770 26916 ft 374 kts 353°
2026-04-17 12:55 14.35797 100.28468 27639 ft 378 kts 353°
2026-04-17 12:56 14.38418 100.28161 28340 ft 382 kts 353°
2026-04-17 12:56 14.41052 100.27853 29014 ft 386 kts 353°
2026-04-17 12:56 14.43714 100.27541 29668 ft 391 kts 353°
2026-04-17 12:56 14.46434 100.27194 30295 ft 395 kts 349°
2026-04-17 12:57 14.49062 100.26469 30920 ft 398 kts 343°
2026-04-17 12:57 14.51733 100.25639 31491 ft 403 kts 343°
2026-04-17 12:57 14.54380 100.24794 31928 ft 397 kts 342°
2026-04-17 12:58 14.59680 100.23088 31998 ft 406 kts 342°
2026-04-17 12:58 14.65066 100.21350 31999 ft 406 kts 342°
2026-04-17 12:59 14.70423 100.19576 31999 ft 406 kts 342°
2026-04-17 12:59 14.75797 100.17790 32000 ft 406 kts 342°
2026-04-17 13:00 14.81135 100.16014 32000 ft 406 kts 342°
2026-04-17 13:00 14.86495 100.14230 32000 ft 406 kts 342°
2026-04-17 13:01 14.91865 100.12442 32000 ft 406 kts 342°
2026-04-17 13:01 14.97196 100.10666 32000 ft 406 kts 342°
2026-04-17 13:02 15.02545 100.08884 32000 ft 406 kts 342°
2026-04-17 13:02 15.07901 100.07099 32000 ft 406 kts 342°
2026-04-17 13:03 15.13263 100.05312 32000 ft 406 kts 342°
2026-04-17 13:03 15.18636 100.03520 32000 ft 406 kts 342°
2026-04-17 13:04 15.23978 100.01738 32000 ft 406 kts 342°
2026-04-17 13:04 15.29329 99.99951 32000 ft 406 kts 342°
2026-04-17 13:05 15.34688 99.98161 32000 ft 406 kts 342°
2026-04-17 13:05 15.40048 99.96370 32000 ft 406 kts 342°
2026-04-17 13:06 15.45404 99.94579 32000 ft 406 kts 342°
2026-04-17 13:06 15.50741 99.92794 32000 ft 406 kts 342°
2026-04-17 13:07 15.56111 99.90997 32000 ft 406 kts 342°
2026-04-17 13:07 15.61463 99.89204 32000 ft 406 kts 342°
2026-04-17 13:08 15.66808 99.87412 32000 ft 406 kts 342°
2026-04-17 13:08 15.72163 99.85617 32000 ft 406 kts 342°
2026-04-17 13:09 15.77550 99.83810 32000 ft 406 kts 342°
2026-04-17 13:09 15.82914 99.82009 32000 ft 406 kts 342°
2026-04-17 13:10 15.88285 99.80205 32000 ft 406 kts 342°
2026-04-17 13:10 15.93607 99.78416 32000 ft 406 kts 342°
2026-04-17 13:11 15.98989 99.76608 32000 ft 406 kts 342°
2026-04-17 13:11 16.04354 99.74802 32000 ft 406 kts 342°
2026-04-17 13:12 16.09673 99.73012 32000 ft 406 kts 342°
2026-04-17 13:12 16.17714 99.70303 32000 ft 406 kts 342°
2026-04-17 13:13 16.23051 99.68504 32000 ft 406 kts 342°
2026-04-17 13:13 16.28404 99.66699 32000 ft 406 kts 342°
2026-04-17 13:14 16.33734 99.64900 32000 ft 406 kts 342°
2026-04-17 13:14 16.39079 99.63097 32000 ft 406 kts 342°
2026-04-17 13:15 16.44442 99.61287 32000 ft 406 kts 342°
2026-04-17 13:15 16.49817 99.59471 32000 ft 406 kts 342°
2026-04-17 13:16 16.55149 99.57670 32000 ft 406 kts 342°
2026-04-17 13:16 16.60506 99.55859 32000 ft 406 kts 342°
2026-04-17 13:17 16.65868 99.54044 32000 ft 406 kts 342°
2026-04-17 13:17 16.71223 99.52232 32000 ft 406 kts 342°
2026-04-17 13:18 16.76582 99.50417 32000 ft 406 kts 342°
2026-04-17 13:18 16.81929 99.48605 32000 ft 406 kts 342°
2026-04-17 13:19 16.87289 99.46788 32000 ft 406 kts 342°
2026-04-17 13:19 16.92625 99.44978 32000 ft 406 kts 342°
2026-04-17 13:20 16.97994 99.43155 32000 ft 406 kts 342°
2026-04-17 13:20 17.03336 99.41341 32000 ft 406 kts 342°
2026-04-17 13:21 17.08698 99.39518 32000 ft 406 kts 342°
2026-04-17 13:21 17.14061 99.37695 32000 ft 406 kts 342°
2026-04-17 13:22 17.19410 99.35874 32000 ft 406 kts 342°
2026-04-17 13:22 17.24731 99.34062 32000 ft 406 kts 342°
2026-04-17 13:23 17.30083 99.32239 32000 ft 406 kts 342°
2026-04-17 13:23 17.35441 99.30412 32000 ft 406 kts 342°
2026-04-17 13:24 17.40782 99.28590 32000 ft 406 kts 342°
2026-04-17 13:24 17.46177 99.26829 31991 ft 406 kts 346°
2026-04-17 13:25 17.51644 99.25456 32001 ft 406 kts 346°
2026-04-17 13:25 17.57131 99.24080 32000 ft 406 kts 346°
2026-04-17 13:26 17.61828 99.22904 32000 ft 406 kts 346°
2026-04-17 13:26 17.66880 99.21637 31999 ft 406 kts 346°
2026-04-17 13:27 17.72375 99.20258 32000 ft 406 kts 346°
2026-04-17 13:27 17.77866 99.18878 32000 ft 406 kts 346°
2026-04-17 13:28 17.83326 99.17506 31999 ft 406 kts 346°
2026-04-17 13:28 17.86719 99.16651 32000 ft 406 kts 347°
2026-04-17 13:29 17.92195 99.15273 31999 ft 406 kts 346°
2026-04-17 13:29 17.97641 99.13910 31997 ft 406 kts 346°
2026-04-17 13:30 18.03134 99.12524 32000 ft 406 kts 346°
2026-04-17 13:30 18.08531 99.11163 32000 ft 406 kts 346°
2026-04-17 13:31 18.13988 99.10380 31942 ft 384 kts
2026-04-17 13:31 18.16492 99.11066 31946 ft 366 kts 20°
2026-04-17 13:31 18.18777 99.12052 31955 ft 351 kts 24°
2026-04-17 13:32 18.23129 99.14372 31993 ft 365 kts 39°
2026-04-17 13:32 18.24934 99.16341 32043 ft 384 kts 50°
2026-04-17 13:32 18.26656 99.18583 32051 ft 404 kts 52°
2026-04-17 13:33 18.30110 99.23286 31927 ft 401 kts 52°
2026-04-17 13:33 18.32004 99.25411 31158 ft 402 kts 37°
2026-04-17 13:33 18.34363 99.26814 30690 ft 396 kts 24°
2026-04-17 13:34 18.36873 99.27876 30084 ft 394 kts 20°
2026-04-17 13:34 18.39394 99.28802 29543 ft 390 kts 15°
2026-04-17 13:34 18.42053 99.29082 28938 ft 387 kts 355°
2026-04-17 13:34 18.44675 99.28623 28427 ft 382 kts 346°
2026-04-17 13:35 18.47080 99.27500 27795 ft 380 kts 325°
2026-04-17 13:35 18.49018 99.25722 27319 ft 375 kts 316°
2026-04-17 13:35 18.50888 99.23853 26749 ft 373 kts 316°
2026-04-17 13:35 18.52812 99.22077 26183 ft 370 kts 326°
2026-04-17 13:36 18.55154 99.21021 25677 ft 363 kts 347°
2026-04-17 13:36 18.57610 99.20843 24802 ft 359 kts
2026-04-17 13:36 18.60033 99.21399 23828 ft 355 kts 11°
2026-04-17 13:36 18.62460 99.21383 22915 ft 350 kts 353°
2026-04-17 13:37 18.64811 99.21153 22078 ft 345 kts 355°
2026-04-17 13:37 18.67196 99.20975 21189 ft 341 kts 356°
2026-04-17 13:37 18.69516 99.20863 20717 ft 324 kts 360°
2026-04-17 13:37 18.71631 99.20859 20619 ft 292 kts
2026-04-17 13:38 18.73657 99.20868 19546 ft 295 kts
2026-04-17 13:38 18.75667 99.20875 18684 ft 290 kts 360°
2026-04-17 13:38 18.77651 99.20885 18059 ft 287 kts
2026-04-17 13:38 18.79617 99.20892 16640 ft 306 kts 360°
2026-04-17 13:39 18.81751 99.20899 15064 ft 311 kts
2026-04-17 13:39 18.83896 99.20908 14001 ft 308 kts
2026-04-17 13:39 18.85995 99.20916 13162 ft 302 kts
2026-04-17 13:39 18.88061 99.20924 12281 ft 298 kts
2026-04-17 13:40 18.90098 99.20932 11404 ft 294 kts
2026-04-17 13:40 18.92111 99.20940 10542 ft 290 kts
2026-04-17 13:40 18.94103 99.20949 9686 ft 287 kts
2026-04-17 13:40 18.96066 99.20956 8846 ft 283 kts
2026-04-17 13:41 18.98005 99.20963 8019 ft 280 kts
2026-04-17 13:41 18.99905 99.20971 7209 ft 276 kts
2026-04-17 13:41 19.01805 99.20811 6336 ft 275 kts 345°
2026-04-17 13:41 19.03416 99.19799 5713 ft 275 kts 315°
2026-04-17 13:42 19.04467 99.18137 5719 ft 270 kts 298°
2026-04-17 13:42 19.04945 99.16251 5666 ft 269 kts 274°
2026-04-17 13:42 19.05005 99.14260 5705 ft 271 kts 270°
2026-04-17 13:42 19.05016 99.12288 5679 ft 268 kts 270°
2026-04-17 13:43 19.05019 99.10448 5677 ft 234 kts 270°
2026-04-17 13:43 19.05023 99.08813 5712 ft 219 kts 270°
2026-04-17 13:43 19.05028 99.07175 5720 ft 225 kts 270°
2026-04-17 13:43 19.05032 99.05518 5707 ft 227 kts 270°
2026-04-17 13:44 19.05036 99.03858 5700 ft 227 kts 270°
2026-04-17 13:44 19.05041 99.02193 5695 ft 228 kts 270°
2026-04-17 13:44 19.05045 99.00518 5690 ft 228 kts 270°
2026-04-17 13:44 19.04966 98.98822 5677 ft 242 kts 258°
2026-04-17 13:45 19.04137 98.97217 5683 ft 261 kts 229°
2026-04-17 13:45 19.02608 98.96146 5663 ft 270 kts 202°
2026-04-17 13:45 19.00755 98.95919 5647 ft 271 kts 175°
2026-04-17 13:45 18.98885 98.96224 5683 ft 271 kts 175°
2026-04-17 13:46 18.97012 98.96321 5681 ft 271 kts 179°
2026-04-17 13:46 18.95128 98.96348 5706 ft 272 kts 179°
2026-04-17 13:46 18.93311 98.96308 5765 ft 264 kts 182°
2026-04-17 13:46 18.91634 98.96268 5174 ft 226 kts 181°
2026-04-17 13:47 18.90158 98.96345 4617 ft 212 kts 175°
2026-04-17 13:47 18.88701 98.96455 3966 ft 209 kts 176°
2026-04-17 13:47 18.87284 98.96574 3100 ft 212 kts 172°
2026-04-17 13:47 18.85907 98.96681 2654 ft 185 kts 182°
2026-04-17 13:48 18.84668 98.96580 1902 ft 182 kts 182°
2026-04-17 13:48 18.83521 98.96579 1652 ft 156 kts 180°
2026-04-17 13:48 18.82514 98.96478 1752 ft 147 kts 188°
2026-04-17 13:48 18.81457 98.96337 1675 ft 160 kts 186°
2026-04-17 13:49 18.80328 98.96274 1529 ft 169 kts 179°
2026-04-17 13:49 18.79131 98.96324 1268 ft 170 kts 179°
2026-04-17 13:49 18.77974 98.96301 1079 ft 164 kts 180°
2026-04-17 13:49 18.76992 98.96305 1026 ft 94 kts 180°
2026-04-17 13:50 18.76806 98.96304 1022 ft 0 kts 180°
2026-04-17 13:50 18.76749 98.96303 1021 ft 13 kts 180°
2026-04-17 13:50 18.76630 98.96302 1019 ft 20 kts 181°
2026-04-17 13:50 18.76530 98.96299 1017 ft 17 kts 181°
2026-04-17 13:51 18.76398 98.96294 1016 ft 19 kts 182°
2026-04-17 13:51 18.76276 98.96292 1015 ft 18 kts 178°
2026-04-17 13:51 18.76201 98.96345 1013 ft 14 kts 112°
2026-04-17 13:51 18.76196 98.96445 1013 ft 8 kts 85°
2026-04-17 13:52 18.76233 98.96510 1012 ft 13 kts 24°
2026-04-17 13:52 18.76347 98.96524 1012 ft 19 kts
2026-04-17 13:52 18.76469 98.96524 1015 ft 16 kts 359°
2026-04-17 13:52 18.76576 98.96572 1016 ft 20 kts 67°
2026-04-17 13:53 18.76634 98.96643 1015 ft 13 kts 15°
2026-04-17 13:53 18.76742 98.96652 1017 ft 17 kts
2026-04-17 13:53 18.76851 98.96653 1019 ft 13 kts 358°
2026-04-17 13:53 18.76909 98.96675 1019 ft 5 kts 74°
2026-04-17 13:54 18.76912 98.96735 1018 ft 0 kts 90°